Location: Venise Bay
(45.0825°N, 73.1481°W)
Time: 23:47:49
(UTC-05:00)

ISS - Pass Details

Date: 03 December 2021
Orbit: 413 x 423 km, 51.6° (Epoch: 20 January)

Event Time Altitude Azimuth Distance (km) Brightness Sun altitude
Rises 17:18:14 0° 299° (WNW) 2,383 0.7 -11.4°
Reaches altitude 10° 17:20:26 10° 307° (NW) 1,514 -0.5 -11.8°
Maximum altitude 17:23:39 38° 18° (NNE) 656 -3.1 -12.3°
Enters shadow 17:25:20 22° 74° (ENE) 970 -2.6 -12.6°
